Grand Canyon, AZ

12:40 PM MST on May 22, 2018 (GMT -0700)
Grand Canyon National Park

Weather History for KGCN - June, 2014

Change the Weather History Date:

Monday, June 16, 2014

  Actual Average Record
Temperature  
Mean Temperature 62 °F -  
Max Temperature 78 °F 78 °F 90 °F (1985)
Min Temperature 46 °F 36 °F 30 °F (1990)
Degree Days  
Heating Degree Days 3    
Growing Degree Days 12 (Base 50)    
Moisture  
Dew Point 8 °F    
Average Humidity 12    
Maximum Humidity 24    
Minimum Humidity 5    
Precipitation  
Precipitation 0.00 in - - ()
Sea Level Pressure  
Sea Level Pressure 29.72 in    
Wind  
Wind Speed 17 mph (SW)    
Max Wind Speed 36 mph    
Max Gust Speed 54 mph    
Visibility 10 miles    
Events      
Averages and records for this station are not official NWS values.
T = Trace of Precipitation, MM = Missing Value Source: NWS Daily Summary

Daily Weather History Graph

Daily Weather History Graph

Search for Another Location

Airport or City:

Astronomy

Jun. 16, 2014 Rise Set
Actual Time 5:11 AM MST 7:47 PM MST
Civil Twilight 4:41 AM MST 8:17 PM MST
Nautical Twilight 4:03 AM MST 8:54 PM MST
Astronomical Twilight 3:22 AM MST 9:36 PM MST
Moon 10:49 PM MST (6/16) 9:13 AM MST (6/16)
Length of Visible Light 15h 36m
Length of Day
14h 35m
Waning Gibbous, 82% of the Moon is Illuminated
Jun 16
Waning Gibbous
Jun 19
Last Quarter
Jun 27
New
Jul 5
First Quarter
Jul 12
Full

Hourly Weather History & Observations

Time (MST) Temp. Dew Point Humidity Pressure Visibility Wind Dir Wind Speed Gust Speed Precip Events Conditions
12:54 AM 53.1 °F -5.1 °F 9% 29.72 in 10.0 mi SW 5.8 mph - N/A   Clear
1:54 AM 53.1 °F -2.9 °F 10% 29.71 in 10.0 mi SW 8.1 mph - N/A   Clear
2:54 AM 46.9 °F -2.9 °F 13% 29.73 in 10.0 mi SSW 3.5 mph - N/A   Clear
3:54 AM 54.0 °F -0.9 °F 11% 29.72 in 10.0 mi SSW 10.4 mph - N/A   Clear
4:54 AM 54.0 °F 3.9 °F 13% 29.72 in 10.0 mi SSW 12.7 mph - N/A   Clear
5:54 AM 54.0 °F 3.9 °F 13% 29.75 in 10.0 mi SW 9.2 mph - N/A   Clear
6:54 AM 59.0 °F 6.1 °F 12% 29.74 in 10.0 mi SSW 15.0 mph 24.2 mph N/A   Clear
7:54 AM 64.9 °F 8.1 °F 11% 29.75 in 10.0 mi SW 19.6 mph 34.5 mph N/A   Clear
8:54 AM 66.9 °F 10.9 °F 11% 29.74 in 10.0 mi SSW 24.2 mph 36.8 mph N/A   Clear
9:54 AM 70.0 °F 15.1 °F 12% 29.75 in 10.0 mi SW 24.2 mph 42.6 mph N/A   Clear
10:54 AM 71.1 °F 16.0 °F 12% 29.74 in 10.0 mi SW 26.5 mph 35.7 mph N/A   Clear
11:54 AM 73.9 °F 14.0 °F 10% 29.73 in 10.0 mi SW 28.8 mph 49.5 mph N/A   Clear
12:54 PM 78.1 °F 7.0 °F 7% 29.71 in 10.0 mi SW 35.7 mph 54.1 mph N/A   Clear
1:54 PM 77.0 °F 8.1 °F 7% 29.71 in 10.0 mi SW 29.9 mph 43.7 mph N/A   Clear
2:54 PM 78.1 °F 6.1 °F 6% 29.73 in 10.0 mi SW 34.5 mph 48.3 mph N/A   Clear
3:54 PM 78.1 °F 7.0 °F 7% 29.68 in 10.0 mi SW 35.7 mph 48.3 mph N/A   Clear
4:54 PM 75.9 °F -0.0 °F 5% 29.68 in 10.0 mi SW 34.5 mph 54.1 mph N/A   Clear
5:54 PM 73.9 °F 8.1 °F 8% 29.68 in 10.0 mi SW 34.5 mph 46.0 mph N/A   Clear
6:54 PM 72.0 °F 12.0 °F 10% 29.68 in 10.0 mi SW 29.9 mph 43.7 mph N/A   Clear
7:54 PM 68.0 °F 12.9 °F 12% 29.70 in 10.0 mi SW 21.9 mph 32.2 mph N/A   Clear
8:54 PM 64.9 °F 15.1 °F 15% 29.73 in 10.0 mi SW 20.7 mph 27.6 mph N/A   Clear
9:54 PM 63.0 °F 18.0 °F 18% 29.73 in 10.0 mi SSW 13.8 mph - N/A   Clear
10:54 PM 60.1 °F 21.0 °F 22% 29.74 in 10.0 mi SSW 12.7 mph - N/A   Clear
11:54 PM 59.0 °F 21.9 °F 24% 29.72 in 10.0 mi SSW 13.8 mph 19.6 mph N/A   Clear